EW3670 Weather Reports


time (UTC)temp
F
wind
direction
speed
knots
gust
knots
rain 1hr
in
rain 24hr
in
rain mn
in
humidity
%
barometer
mb
20260510061051 53 0 0.9 6.1 0.00 0.05 0.00 87 1003.3
20260510060551 53 281 0.9 7.0 0.00 0.05 0.00 87 1003.3
20260510060056 53 266 0.9 7.0 0.00 0.05 0.00 87 1003.3
20260510055551 53 259 1.7 7.0 0.00 0.05 0.00 87 1003.3
20260510055051 53 254 1.7 6.1 0.00 0.05 0.00 87 1003.3
20260510054552 53 254 1.7 8.7 0.00 0.05 0.00 88 1003.3
20260510054051 53 227 3.5 8.7 0.00 0.05 0.00 88 1003.2
20260510053550 53 248 2.6 7.8 0.00 0.05 0.00 88 1003.1
20260510053101 53 263 0.9 7.0 0.00 0.05 0.00 88 1003.1
20260510052552 53 265 0.9 7.0 0.00 0.05 0.00 88 1003.0
20260510052051 53 232 1.7 7.0 0.00 0.05 0.00 88 1003.2
20260510051557 53 232 0.9 6.1 0.00 0.05 0.00 88 1003.1
20260510051052 53 260 0.9 6.1 0.00 0.05 0.00 88 1003.0
20260510050555 53 269 0.9 6.1 0.00 0.05 0.00 88 1003.0
20260510050056 53 271 1.7 5.2 0.00 0.05 0.00 88 1003.0
20260510045552 54 236 0.9 5.2 0.00 0.05 0.00 87 1003.0
20260510045141 54 0 0.9 5.2 0.00 0.05 0.00 87 1002.9
20260510044553 54 0 0.9 5.2 0.00 0.05 0.00 87 1002.8
20260510044051 54 232 0.9 7.0 0.00 0.05 0.00 87 1002.6
20260510043551 54 246 0.9 7.0 0.00 0.05 0.00 87 1002.5
20260510043102 54 0 0.9 5.2 0.00 0.05 0.00 87 1002.4
20260510042552 54 0 0.9 5.2 0.00 0.05 0.00 87 1002.2
20260510042054 54 266 0.9 5.2 0.00 0.05 0.00 87 1002.1
20260510041555 54 0 0.9 5.2 0.00 0.05 0.00 87 1002.2
20260510041051 54 276 0.9 7.0 0.00 0.05 0.00 86 1001.9
20260510040551 54 239 0.9 7.0 0.00 0.05 0.00 86 1001.8
20260510040056 54 248 1.7 6.1 0.00 0.05 0.00 86 1002.0
20260510035552 55 248 1.7 6.1 0.00 0.05 0.05 86 1001.9
20260510035055 55 236 1.7 6.1 0.00 0.05 0.05 86 1001.9
20260510034555 55 0 1.7 6.1 0.00 0.05 0.05 85 1002.0
20260510034051 55 241 0.0 6.1 0.02 0.05 0.05 85 1002.1
20260510033550 55 281 0.9 4.3 0.03 0.05 0.05 85 1002.1
20260510033101 55 0 0.9 5.2 0.05 0.05 0.05 85 1002.1
20260510032550 55 281 0.9 5.2 0.05 0.05 0.05 84 1002.1
20260510032051 55 0 0.9 6.1 0.05 0.05 0.05 84 1002.0
20260510031552 55 239 0.9 7.8 0.05 0.05 0.05 84 1002.1
20260510031051 55 242 1.7 7.8 0.05 0.05 0.05 83 1001.9
20260510030551 55 296 1.7 7.0 0.05 0.05 0.05 82 1002.1
20260510030103 55 236 2.6 5.2 0.04 0.04 0.04 81 1001.9
20260510025551 56 225 1.7 4.3 0.04 0.04 0.04 79 1001.8
20260510025051 56 224 1.7 6.1 0.04 0.04 0.04 78 1001.9
20260510024557 57 213 1.7 8.7 0.04 0.04 0.04 76 1002.1
20260510024051 57 213 3.5 8.7 0.03 0.03 0.03 75 1002.1
20260510023552 58 237 1.7 7.0 0.00 0.00 0.00 74 1002.1
20260510023053 58 244 1.7 5.2 0.00 0.00 0.00 72 1001.8
20260510022551 58 224 2.6 6.1 0.00 0.00 0.00 71 1001.6
20260510022051 59 0 1.7 7.0 0.00 0.00 0.00 69 1001.5
20260510021552 59 234 1.7 8.7 0.00 0.00 0.00 67 1001.2
20260510021050 59 220 2.6 8.7 0.00 0.00 0.00 66 1001.2
20260510020551 59 85 1.7 13.9 0.00 0.00 0.00 65 1001.2
20260510020050 60 251 2.6 13.9 0.00 0.00 0.00 65 1001.3
20260510015552 60 220 2.6 9.6 0.00 0.00 0.00 64 1001.2
20260510015051 60 148 1.7 7.8 0.00 0.00 0.00 64 1001.4
20260510014556 60 148 2.6 7.8 0.00 0.00 0.00 64 1001.6
20260510014052 60 204 1.7 7.8 0.00 0.00 0.00 63 1001.7
20260510013551 60 234 1.7 7.8 0.00 0.00 0.00 63 1001.8
20260510013053 60 197 0.9 5.2 0.00 0.00 0.00 62 1001.8
20260510012551 60 166 1.7 7.8 0.00 0.00 0.00 62 1001.8
20260510012051 61 175 1.7 7.8 0.00 0.00 0.00 61 1001.7
20260510011552 61 0 0.9 8.7 0.00 0.00 0.00 61 1001.8
20260510011052 61 176 1.7 8.7 0.00 0.00 0.00 60 1001.8
20260510010551 61 156 0.9 7.8 0.00 0.00 0.00 60 1001.8
20260510010050 61 0 0.9 7.8 0.00 0.00 0.00 60 1001.8
20260510005552 61 156 2.6 7.8 0.00 0.00 0.00 59 1001.8
20260510005051 61 164 0.9 7.8 0.00 0.00 0.00 59 1001.9
20260510004553 62 157 0.0 5.2 0.00 0.00 0.00 58 1001.8
20260510004052 62 0 0.9 6.1 0.00 0.00 0.00 58 1001.8
20260510003552 62 193 0.0 6.1 0.00 0.00 0.00 58 1001.8
20260510003055 62 169 0.9 5.2 0.00 0.00 0.00 57 1001.8
20260510002551 62 161 0.0 8.7 0.00 0.00 0.00 57 1001.9
20260510002051 62 174 0.9 8.7 0.00 0.00 0.00 56 1002.0
20260510001552 62 216 0.9 5.2 0.00 0.00 0.00 56 1002.1
20260510001051 62 195 1.7 5.2 0.00 0.00 0.00 55 1002.1
20260510000554 62 0 1.7 4.3 0.00 0.00 0.00 55 1002.2
20260510000100 62 0 1.7 5.2 0.00 0.00 0.00 55 1002.4
20260509235553 63 222 0.9 5.2 0.00 0.00 0.00 55 1002.5
20260509235051 63 220 1.7 6.1 0.00 0.00 0.00 55 1002.4
20260509234552 63 219 1.7 6.1 0.00 0.00 0.00 55 1002.5
20260509234051 63 232 0.9 7.0 0.00 0.00 0.00 55 1002.6
20260509233550 63 233 1.7 8.7 0.00 0.00 0.00 54 1002.7
20260509233057 63 231 4.3 8.7 0.00 0.00 0.00 53 1002.7
20260509232553 64 228 1.7 9.6 0.00 0.00 0.00 53 1002.7
20260509232052 64 0 1.7 9.6 0.00 0.00 0.00 53 1002.7
20260509231552 64 234 2.6 9.6 0.00 0.00 0.00 52 1002.7
20260509231052 64 229 3.5 12.2 0.00 0.00 0.00 51 1002.6
20260509230554 64 247 4.3 12.2 0.00 0.00 0.00 51 1002.6
20260509230056 65 230 3.5 11.3 0.00 0.00 0.00 50 1002.5
20260509225551 65 186 1.7 7.8 0.00 0.00 0.00 47 1002.4
20260509225050 65 216 2.6 8.7 0.00 0.00 0.00 45 1002.3
20260509224552 65 249 3.5 8.7 0.00 0.00 0.00 43 1002.3
20260509224051 65 261 0.9 7.8 0.00 0.00 0.00 43 1002.3
20260509223554 65 234 1.7 9.6 0.00 0.00 0.00 42 1002.2
20260509223056 65 235 1.7 9.6 0.00 0.00 0.00 42 1002.1
20260509222551 65 232 1.7 7.8 0.00 0.00 0.00 42 1002.1
20260509222050 65 236 2.6 6.1 0.00 0.00 0.00 42 1002.2
20260509221553 65 224 0.9 4.3 0.00 0.00 0.00 42 1002.1
20260509221053 66 224 2.6 6.1 0.00 0.00 0.00 42 1002.0
20260509220552 66 256 1.7 6.1 0.00 0.00 0.00 41 1001.9
20260509220052 66 215 2.6 7.8 0.00 0.00 0.00 42 1001.9
20260509215551 66 226 2.6 7.8 0.00 0.00 0.00 41 1002.0
20260509215051 66 145 3.5 6.1 0.00 0.00 0.00 41 1002.2
20260509214610 66 228 1.7 6.1 0.00 0.00 0.00 40 1002.3
20260509214050 67 232 2.6 6.1 0.00 0.00 0.00 39 1002.3
20260509213550 67 186 2.6 10.4 0.00 0.00 0.00 38 1002.3
20260509213051 67 226 2.6 10.4 0.00 0.00 0.00 37 1002.4
20260509212551 67 217 3.5 10.4 0.00 0.00 0.00 37 1002.4
20260509212052 67 185 2.6 10.4 0.00 0.00 0.00 37 1002.5
20260509211550 67 230 2.6 10.4 0.00 0.00 0.00 36 1002.4
20260509211051 67 234 2.6 8.7 0.00 0.00 0.00 36 1002.4
20260509210551 67 211 2.6 11.3 0.00 0.00 0.00 35 1002.4
20260509205550 67 170 2.6 7.0 0.00 0.00 0.00 34 1002.4
20260509205052 67 214 1.7 7.8 0.00 0.00 0.00 34 1002.6
20260509204556 67 0 2.6 9.6 0.00 0.00 0.00 33 1002.4
20260509204052 68 194 2.6 9.6 0.00 0.00 0.00 31 1002.6
20260509203553 69 229 2.6 8.7 0.00 0.00 0.00 30 1002.7
20260509203107 68 221 4.3 9.6 0.00 0.00 0.00 29 1002.6
20260509202552 69 215 2.6 9.6 0.00 0.00 0.00 29 1002.5
20260509202053 69 207 1.7 9.6 0.00 0.00 0.00 29 1002.7
20260509201553 69 225 2.6 7.8 0.00 0.00 0.00 27 1002.8
20260509201053 69 239 2.6 8.7 0.00 0.00 0.00 27 1002.8
20260509200552 69 216 2.6 9.6 0.00 0.00 0.00 27 1002.8
20260509200055 69 215 2.6 9.6 0.00 0.00 0.00 27 1002.8
20260509195552 69 213 2.6 14.8 0.00 0.00 0.00 27 1002.8
20260509195052 69 182 4.3 14.8 0.00 0.00 0.00 27 1002.9
20260509194556 69 225 2.6 10.4 0.00 0.00 0.00 26 1002.9
20260509194051 69 214 2.6 10.4 0.00 0.00 0.00 25 1003.0
20260509193549 69 230 2.6 8.7 0.00 0.00 0.00 26 1003.2
20260509193106 69 194 3.5 13.9 0.00 0.00 0.00 24 1003.1
20260509192553 69 172 3.5 14.8 0.00 0.00 0.00 25 1003.0
20260509192053 69 207 3.5 14.8 0.00 0.00 0.00 25 1003.1
20260509191603 69 197 1.7 16.5 0.00 0.00 0.00 25 1003.2
20260509191053 69 198 6.1 16.5 0.00 0.00 0.00 25 1003.3
20260509190555 69 175 3.5 7.8 0.00 0.00 0.00 25 1003.3
20260509190056 69 184 2.6 8.7 0.00 0.00 0.00 26 1003.4
20260509185551 69 130 3.5 8.7 0.00 0.00 0.00 26 1003.7
20260509185050 69 221 2.6 7.0 0.00 0.00 0.00 25 1003.6
20260509184600 69 230 2.6 8.7 0.00 0.00 0.00 25 1003.8
20260509184050 69 217 3.5 8.7 0.00 0.00 0.00 26 1003.7
20260509183552 69 254 2.6 7.0 0.00 0.00 0.00 25 1003.9
20260509183059 68 229 0.9 7.8 0.00 0.00 0.00 25 1004.1
20260509182555 68 214 2.6 8.7 0.00 0.00 0.00 26 1004.4
20260509182051 68 203 1.7 8.7 0.00 0.00 0.00 25 1004.3
20260509181552 68 223 3.5 7.8 0.00 0.00 0.00 26 1004.4
20260509181052 68 215 2.6 7.8 0.00 0.00 0.00 24 1004.4
20260509180552 69 226 0.9 7.0 0.00 0.00 0.00 25 1004.4
20260509180056 68 235 3.5 7.0 0.00 0.00 0.00 25 1004.5
20260509175551 68 155 2.6 7.0 0.00 0.00 0.00 26 1004.5
20260509175051 68 195 2.6 9.6 0.00 0.00 0.00 26 1004.7
20260509174619 68 180 1.7 10.4 0.00 0.00 0.00 26 1004.7
20260509174050 67 156 3.5 12.2 0.00 0.00 0.00 26 1004.7
20260509173550 67 240 3.5 12.2 0.00 0.00 0.00 27 1004.6
20260509173056 67 153 2.6 12.2 0.00 0.00 0.00 26 1004.6
20260509172550 66 232 3.5 7.8 0.00 0.00 0.00 25 1004.6
20260509172051 67 203 1.7 7.8 0.00 0.00 0.00 26 1004.6
20260509171553 67 295 1.7 6.1 0.00 0.00 0.00 26 1004.9
20260509171050 67 211 1.7 10.4 0.00 0.00 0.00 26 1005.0
20260509170550 68 139 1.7 10.4 0.00 0.00 0.00 26 1005.1
20260509170051 67 166 2.6 10.4 0.00 0.00 0.00 27 1005.1
20260509165551 66 236 2.6 7.8 0.00 0.00 0.00 27 1005.3
20260509165050 66 231 2.6 7.0 0.00 0.00 0.00 26 1005.4
20260509164553 66 208 1.7 9.6 0.00 0.00 0.00 27 1005.6
20260509164050 66 188 2.6 9.6 0.00 0.00 0.00 27 1005.7
20260509163551 66 162 2.6 8.7 0.00 0.00 0.00 27 1005.7
20260509163055 66 254 2.6 8.7 0.00 0.00 0.00 27 1005.7
20260509162553 66 202 1.7 8.7 0.00 0.00 0.00 27 1005.8
20260509162052 66 136 1.7 9.6 0.00 0.00 0.00 27 1005.9
20260509161555 66 294 3.5 10.4 0.00 0.00 0.00 28 1006.0
20260509161055 65 133 3.5 10.4 0.00 0.00 0.00 28 1006.0
20260509160553 65 215 2.6 7.0 0.00 0.00 0.00 30 1006.0
20260509160057 65 171 1.7 9.6 0.00 0.00 0.00 28 1006.1
20260509155556 64 178 2.6 9.6 0.00 0.00 0.00 31 1006.2
20260509155052 64 232 2.6 8.7 0.00 0.00 0.00 31 1006.5
20260509154555 65 249 1.7 8.7 0.00 0.00 0.00 30 1006.7
20260509154052 64 240 2.6 8.7 0.00 0.00 0.00 32 1006.8
20260509153552 64 237 1.7 7.0 0.00 0.00 0.00 32 1006.9
20260509153105 64 238 2.6 7.0 0.00 0.00 0.00 33 1007.0
20260509152553 63 243 0.9 9.6 0.00 0.00 0.00 36 1007.1
20260509152050 64 266 0.9 9.6 0.00 0.00 0.00 36 1007.1
20260509151555 63 0 1.7 9.6 0.00 0.00 0.00 37 1007.2
20260509151056 62 267 2.6 7.8 0.00 0.00 0.00 38 1007.5
20260509150551 62 258 0.0 6.1 0.00 0.00 0.00 40 1007.6
20260509150052 62 264 0.0 5.2 0.00 0.00 0.00 40 1007.7
20260509145551 61 180 0.9 5.2 0.00 0.00 0.00 42 1007.7
20260509145053 60 179 0.9 5.2 0.00 0.00 0.00 42 1007.8
20260509144553 59 0 1.7 4.3 0.00 0.00 0.00 43 1007.8
20260509144050 59 233 0.9 6.1 0.00 0.00 0.00 43 1007.8
20260509143552 59 232 1.7 6.1 0.00 0.00 0.00 43 1008.0
20260509143052 59 237 0.9 5.2 0.00 0.00 0.00 44 1008.0
20260509142553 59 0 0.9 6.1 0.00 0.00 0.00 42 1008.0
20260509142052 58 168 0.0 6.1 0.00 0.00 0.00 43 1008.1
20260509141554 58 163 0.9 6.1 0.00 0.00 0.00 43 1008.0
20260509141053 58 128 0.9 6.1 0.00 0.00 0.00 44 1008.1
20260509140552 57 0 0.9 6.1 0.00 0.00 0.00 44 1008.1
20260509140052 57 163 0.0 6.1 0.00 0.00 0.00 45 1008.1
20260509135553 56 164 0.9 6.1 0.00 0.00 0.00 45 1008.2
20260509135053 55 0 0.0 2.6 0.00 0.00 0.00 46 1008.1
20260509134554 54 145 0.0 6.1 0.00 0.00 0.00 47 1008.2
20260509134050 53 0 0.0 6.1 0.00 0.00 0.00 49 1008.3
20260509133553 53 132 0.9 6.1 0.00 0.00 0.00 47 1008.3
20260509133054 53 0 0.0 3.5 0.00 0.00 0.00 48 1008.3
20260509132551 53 0 0.0 3.5 0.00 0.00 0.00 49 1008.4
20260509132051 52 142 0.9 2.6 0.00 0.00 0.00 51 1008.4
20260509131550 52 148 0.0 4.3 0.00 0.00 0.00 50 1008.6
20260509131050 51 0 0.0 4.3 0.00 0.00 0.00 53 1008.6
20260509130550 50 0 0.0 3.5 0.00 0.00 0.00 53 1008.7
20260509130104 51 0 0.0 3.5 0.00 0.00 0.00 53 1008.7
20260509125553 50 144 0.0 3.5 0.00 0.00 0.00 54 1008.7
20260509125051 49 144 0.9 5.2 0.00 0.00 0.00 55 1008.9
20260509124555 48 158 0.9 5.2 0.00 0.00 0.00 55 1008.9
20260509124053 48 0 0.9 4.3 0.00 0.00 0.00 55 1008.9
20260509123551 48 140 0.0 3.5 0.00 0.00 0.00 56 1009.0
20260509123058 47 140 0.0 3.5 0.00 0.00 0.00 57 1008.9
20260509122552 47 140 0.9 3.5 0.00 0.00 0.00 57 1009.0
20260509122052 46 140 0.9 3.5 0.00 0.00 0.00 58 1009.0
20260509121614 46 135 0.9 3.5 0.00 0.00 0.00 59 1009.0
20260509121050 46 134 0.0 3.5 0.00 0.00 0.00 59 1008.9
20260509120551 45 134 0.0 2.6 0.00 0.00 0.00 61 1008.9
20260509120055 45 0 0.0 2.6 0.00 0.00 0.00 61 1008.9
20260509115550 45 126 0.9 2.6 0.00 0.00 0.00 60 1008.9
20260509115052 45 0 0.0 2.6 0.00 0.00 0.00 60 1009.0
20260509114600 45 0 0.0 3.5 0.00 0.00 0.00 61 1008.9
20260509114052 45 0 0.0 3.5 0.00 0.00 0.00 61 1008.9
20260509113551 45 126 0.0 2.6 0.00 0.00 0.00 62 1008.8
20260509113101 45 0 0.0 2.6 0.00 0.00 0.00 63 1008.8
20260509112550 44 127 0.0 3.5 0.00 0.00 0.00 63 1008.7
20260509112051 44 127 0.0 5.2 0.00 0.00 0.00 65 1008.8
20260509111555 43 0 0.9 5.2 0.00 0.00 0.00 65 1008.7
20260509111053 43 88 0.0 2.6 0.00 0.00 0.00 66 1008.8
20260509110552 42 87 0.0 2.6 0.00 0.00 0.00 68 1008.8
20260509110110 42 82 0.0 3.5 0.00 0.00 0.00 69 1008.8
20260509105550 42 0 0.0 3.5 0.00 0.00 0.00 69 1008.7
20260509105050 41 69 0.0 3.5 0.00 0.00 0.00 70 1008.7
20260509104559 41 0 0.0 3.5 0.00 0.00 0.00 71 1008.6
20260509104051 41 148 0.0 3.5 0.00 0.00 0.00 71 1008.6
20260509103551 41 0 0.0 1.7 0.00 0.00 0.00 71 1008.5
20260509103104 41 0 0.0 2.6 0.00 0.00 0.00 71 1008.5
20260509102550 41 172 0.0 2.6 0.00 0.00 0.00 71 1008.6
20260509102051 41 172 0.0 2.6 0.00 0.00 0.00 71 1008.6
20260509101613 41 0 0.0 2.6 0.00 0.00 0.00 71 1008.6
20260509101050 41 0 0.9 2.6 0.00 0.00 0.00 70 1008.5
20260509100550 41 0 0.0 2.6 0.00 0.00 0.00 70 1008.3
20260509100051 41 173 0.0 1.7 0.00 0.00 0.00 70 1008.3
20260509095549 42 0 0.0 1.7 0.00 0.00 0.00 70 1008.3
20260509095051 42 173 0.0 2.6 0.00 0.00 0.00 70 1008.3
20260509094604 42 0 0.0 2.6 0.00 0.00 0.00 70 1008.3
20260509094053 42 0 0.0 2.6 0.00 0.00 0.00 70 1008.3
20260509093551 42 0 0.0 1.7 0.00 0.00 0.00 70 1008.3
20260509093054 42 0 0.0 3.5 0.00 0.00 0.00 70 1008.2
20260509092551 42 0 0.0 3.5 0.00 0.00 0.00 70 1008.3
20260509092050 42 0 0.9 3.5 0.00 0.00 0.00 70 1008.2
20260509091602 42 0 0.0 1.7 0.00 0.00 0.00 69 1008.2
20260509091050 42 0 0.0 1.7 0.00 0.00 0.00 69 1008.4
20260509090553 42 0 0.0 0.9 0.00 0.00 0.00 69 1008.4
20260509090100 42 0 0.0 0.9 0.00 0.00 0.00 69 1008.4
20260509085550 42 0 0.0 1.7 0.00 0.00 0.00 69 1008.3
20260509085050 42 0 0.0 1.7 0.00 0.00 0.00 69 1008.3
20260509084559 42 0 0.0 0.9 0.00 0.00 0.00 68 1008.3
20260509084050 42 0 0.0 0.0 0.00 0.00 0.00 68 1008.3
20260509083550 42 0 0.0 0.9 0.00 0.00 0.00 68 1008.3
20260509083102 42 0 0.0 2.6 0.00 0.00 0.00 68 1008.4
20260509082551 42 0 0.0 2.6 0.00 0.00 0.00 68 1008.4
20260509082050 42 0 0.0 2.6 0.00 0.00 0.00 68 1008.4
20260509081558 42 0 0.0 1.7 0.00 0.00 0.00 68 1008.4
20260509081051 42 0 0.0 1.7 0.00 0.00 0.00 68 1008.5
20260509080550 42 0 0.0 1.7 0.00 0.00 0.00 68 1008.5
20260509075550 42 0 0.0 0.9 0.00 0.00 0.00 68 1008.5
20260509075053 42 0 0.0 0.9 0.00 0.00 0.00 68 1008.3
20260509074556 43 0 0.0 0.9 0.00 0.00 0.00 68 1008.5
20260509074051 43 260 0.0 0.9 0.00 0.00 0.00 68 1008.5
20260509073551 43 0 0.0 0.9 0.00 0.00 0.00 68 1008.5
20260509073100 43 260 0.0 0.9 0.00 0.00 0.00 67 1008.5
20260509072551 43 0 0.0 0.9 0.00 0.00 0.00 67 1008.4
20260509072052 43 0 0.0 0.9 0.00 0.00 0.00 67 1008.5
20260509071604 43 0 0.0 1.7 0.00 0.00 0.00 67 1008.5
20260509071050 43 0 0.0 1.7 0.00 0.00 0.00 66 1008.5
20260509070552 43 0 0.0 0.9 0.00 0.00 0.00 66 1008.6
20260509070057 44 0 0.0 1.7 0.00 0.00 0.00 66 1008.5
20260509065554 44 0 0.0 1.7 0.00 0.00 0.00 66 1008.5
20260509065051 44 0 0.0 1.7 0.00 0.00 0.00 65 1008.6
20260509064554 44 0 0.0 1.7 0.00 0.00 0.00 65 1008.6
20260509064051 44 0 0.0 2.6 0.00 0.00 0.00 65 1008.6
20260509063554 44 0 0.0 2.6 0.00 0.00 0.00 65 1008.5
20260509063100 44 0 0.0 2.6 0.00 0.00 0.00 64 1008.6
20260509062554 45 0 0.0 2.6 0.00 0.00 0.00 64 1008.6
20260509062050 45 0 0.0 1.7 0.00 0.00 0.00 64 1008.6
20260509061552 45 0 0.0 1.7 0.00 0.00 0.00 63 1008.6